SCP
0 0 0 0 0 0 0 0 0 0 0 0 0 0 0 0 0 0 0 0 0 0 0 0 0 0 0 0 0 0 0 0 0 0 0 0 0 0 0 0 0 0 0
0 0 0 0 0 0 0 0 0 0 0 0 0 0 0 0 0 0 0 0 0 0 0 0 0 0 0 0 0 0 0 0 0 0 0 0 0 0 0 0 0 0 0
0 0 0 0 0 0 0 0 0 0 0 0 0 0 0 0 0 0 0 0 0 0 0 0 0 0 0 0 0 0 0 0 0 0 0 0 0 0 0 0 0 0 0
0 0 0 0 0 0 0 0 0 0 0 0 0 0 0 0 0 0 0 0 0 0 0 0 0 0 0 0 0 0 0 0 0 0 0 0 0 0 0 0 0 0 0
-0 0 0 0 0 0 0 0 0 0 0 0 0 0 0 0 0 0 0 0 0 0 0 0 0 0 0 0 0 0 0 0 0 0 0 0 0 0 0 0 0 0 0
0 0 0 0 0 0 0 0 0 0 0 0 0 0 0 0 0 0 0 0 0 0 0 0 0 0 0 0 0 0 0 0 0 0 0 0 0 0 0 0 0 0 0
0 0 0 0 0 0 0 0 0 0 0 0 0 0 0 0 0 0 0 0 0 0 0 0 0 0 0 0 0 0 0 0 0 0 0 0 0 0 0 0 0 0 0
0 0 0 0 0 0 0 0 0 0 0 0 0 0 0 0 0 0 0 0 0 0 0 0 0 0 0 0 0 0 0 0 0 0 0 0 0 0 0 0 0 0 0
0 0 0 0 0 0 0 0 0 0 0 0 0 0 0 0 0 0 0 0 0 0 0 0 0 0 0 0 0 0 0 0 0 0 0 0 0 0 0 0 0 0 0
-0 0 0 0 0 0 0 0 0 0 0 0 0 0 0 0 0 0 0 0 0 0 0 0 0 0 0 0 0 0 0 0 0 0 0 0 0 0 0 0 0 0 0
-0 0 0 0 0 0 0 0 0 0 0 0 0 0 0 0 0 0 0 0 0 0 0 0 0 0 0 0 0 0 0 0 0 0 0 0 0 0 0 0 0 0 0
-0 0 0 0 0 0 0 0 0 0 0 0 0 0 0 0 0 0 0 0 0 0 0 0 0 0 0 0 0 0 0 0 0 0 0 0 0 0 0 0 0 0 0
-0 0 0 0 0 0 0 0 0 0 0 0 0 0 0 0 0 0 0 0 0 0 0 0 0 0 0 0 0 0 0 0 0 0 0 0 0 0 0 0 0 0 0
-0 0 0 0 0 0 0 0 0 0 0 0 0 0 0 0 0 0 0 0 0 0 0 0 0 0 0 0 0 0 0 0 0 0 0 0 0 0 0 0 0 0 0
0 0 0 0 0 0 0 0 0 0 0 0 0 0 0 0 0 0 0 0 0 0 0 0 0 0 0 0 0 0 0 0 0 0 0 0 0 0 0 0 0 0 0
0 0 0 0 0 0 0 0 0 0 0 0 0 0 0 0 0 0 0 0 0 0 0 0 0 0 0 0 0 0 0 0 0 0 0 0 0 0 0 0 0 0 0
0 0 0 0 0 0 0 0 0 0 0 0 0 0 0 0 0 0 0 0 0 0 0 0 0 0 0 0 0 0 0 0 0 0 0 0 0 0 0 0 0 0 0
0 0 0 0 0 0 0 0 0 0 0 0 0 0 0 0 0 0 0 0 0 0 0 0 0 0 0 0 0 0 0 0 0 0 0 0 0 0 0 0 0 0 0
0 0 0 0 0 0 0 0 0 0 0 0 0 0 0 0 0 0 0 0 0 0 0 0 0 0 0 0 0 0 0 0 0 0 0 0 0 0 0 0 0 0 0
0 0 0 0 0 0 0 0 0 0 0 0 0 0 0 0 0 0 0 0 0 0 0 0 0 0 0 0 0 0 0 0 0 0 0 0 0 0 0 0 0 0 0
0 0 0 0 0 0 0 0 0 0 0 0 0 0 0 0 0 0 0 0 0 0 0 0 0 0 0 0 0 0 0 0 0 0 0 0 0 0 0 0 0 0 0
0 0 0 0 0 0 0 0 0 0 0 0 0 0 0 0 0 0 0 0 0 0 0 0 0 0 0 0 0 0 0 -0 -0 -0 0 0 0 0 0 0 0 0 0
0 0 0 0 0 0 0 0 0 0 0 0 0 0 0 0 0 0 0 0 0 0 0 0 0 0 0 0 0 0 0 -0 -0 -0 0 0 0 0 0 0 0 0 0
0 0 0 0 0 0 0 0 0 0 0 0 0 0 0 0 0 0 0 0 0 0 0 0 0 0 0 0 0 0 0 0 0 0 0 0 0 0 0 0 0 0 0
0 0 0 0 0 0 0 0 0 0 0 0 0 0 0 0 0 0 0 0 0 0 0 0 0 0 0 0 0 0 0 0 0 0 -0 -0 -0 -0 0 0 0 0 0
0 0 0 0 0 0 -0 0 0 0 0 -0 0 0 0 0 0 0 0 0 0 0 0 0 0 0 0 0 0 0 0 0 0 -0 -0 -0 -0 -0 0 0 0 0 0
Wind_Speed
2 1 0 0 0 0 1 1 1 2 3 2 3 4 3 2 2 2 2 4 6 7 7 7 6 5 5 5 4 4 4 4 4 4 4 4 4 4 4 4 4 4 3
2 2 1 1 1 1 1 1 2 2 2 2 3 3 3 2 2 2 1 3 5 6 7 7 7 7 6 6 6 5 5 5 5 5 5 4 4 4 4 4 4 4 4
3 2 2 2 1 1 2 2 3 3 3 3 3 3 3 2 2 2 2 2 2 5 6 7 8 8 8 7 6 5 5 5 5 5 5 4 4 4 5 5 5 5 5
3 3 3 2 2 2 2 3 2 3 3 3 3 2 2 2 2 2 2 2 2 2 4 7 8 9 8 7 6 6 6 6 6 5 5 5 5 4 4 5 5 5 6
4 4 3 2 2 3 2 2 3 2 3 3 2 2 2 2 2 3 3 2 2 2 2 5 8 9 9 8 7 6 6 6 6 5 5 5 5 4 4 4 5 5 5
4 4 3 3 3 3 3 3 3 3 2 2 3 4 3 3 3 3 2 2 2 3 3 4 4 6 9 8 7 7 6 5 5 5 5 5 5 5 5 5 5 5 5
4 4 3 3 3 3 3 3 3 4 3 2 3 3 4 4 4 3 3 3 3 3 3 3 3 3 3 8 7 7 7 6 5 5 5 5 6 6 6 6 5 6 6
3 3 3 3 3 3 4 3 3 2 2 2 2 3 3 4 4 4 3 3 3 3 3 4 3 3 3 2 4 7 8 7 7 6 6 6 6 6 6 6 6 6 6
3 3 4 3 3 3 2 2 3 3 2 2 2 3 3 1 1 3 4 3 3 3 3 3 4 4 3 3 2 4 7 7 7 7 7 7 6 6 6 6 6 6 7
3 4 4 4 3 2 2 2 2 2 3 1 1 1 2 3 3 1 3 3 3 3 3 3 4 4 4 3 4 6 8 8 8 8 8 8 8 7 7 7 7 7 7
3 3 3 3 3 2 2 3 3 3 2 2 1 1 2 2 2 3 1 2 3 3 3 3 3 3 3 3 2 5 8 7 8 8 8 8 8 7 7 7 7 7 7
2 3 3 3 3 2 2 2 3 3 2 3 2 2 2 2 1 2 2 0 1 2 3 3 3 2 2 3 4 7 7 7 8 8 8 8 8 7 7 7 7 7 8
1 1 2 2 2 2 2 3 3 3 3 3 2 2 1 1 1 2 3 1 1 1 2 2 2 2 2 2 3 6 6 7 7 7 8 7 7 7 7 8 9 9 9
2 2 2 3 3 3 4 4 3 3 3 3 3 2 2 1 1 2 3 3 2 2 2 2 2 2 2 2 2 4 3 6 7 8 8 7 7 7 8 8 9 10 10
2 3 3 3 3 3 4 4 3 3 3 3 3 3 2 2 2 2 2 3 4 2 1 2 2 2 2 1 2 2 3 6 7 7 8 8 8 8 8 8 9 9 10
3 4 4 3 3 3 4 4 3 3 4 3 2 4 3 2 2 2 2 2 2 3 1 1 1 1 1 2 3 2 3 6 6 7 7 8 8 8 8 8 8 9 9
4 4 4 4 3 3 3 4 3 3 4 3 3 3 3 3 3 2 2 2 2 3 3 1 1 1 2 2 2 2 2 3 3 6 6 7 7 7 7 8 8 8 9
4 4 4 3 3 3 3 4 3 3 3 2 2 3 2 3 3 2 2 3 2 2 3 1 1 2 2 1 1 2 2 2 2 5 6 6 6 6 7 8 7 8 8
4 4 4 3 3 3 3 3 3 3 2 2 2 2 2 3 3 2 3 2 2 2 2 2 0 1 1 2 2 2 3 3 2 3 4 5 5 6 6 6 6 7 7
4 4 3 3 4 4 3 3 4 4 3 2 2 2 2 2 2 2 2 2 2 3 3 2 1 1 1 2 2 2 2 3 3 3 4 4 5 6 6 6 6 6 5
5 4 4 3 3 3 3 4 4 4 3 2 2 1 1 2 3 3 2 2 3 2 2 2 1 1 1 1 1 1 1 2 3 2 2 3 3 3 3 5 5 6 5
4 4 4 4 3 3 5 7 6 4 3 3 2 1 2 2 3 5 5 4 4 4 3 2 1 1 1 1 1 0 1 2 3 2 2 3 2 2 3 2 4 5 5
4 4 3 3 3 2 5 7 7 4 3 3 2 2 1 2 2 2 4 5 4 3 4 4 3 2 2 2 1 0 0 0 2 3 1 3 2 3 3 3 6 5 5
4 4 3 3 3 2 5 6 7 4 3 2 2 2 2 1 1 3 3 3 2 2 1 1 2 2 2 2 2 2 1 0 2 2 1 2 3 3 4 3 6 6 6
4 4 3 3 3 2 4 6 7 4 3 2 1 1 2 1 1 4 4 2 2 2 2 3 2 1 2 1 1 2 2 2 2 3 1 0 2 3 4 3 4 6 6
4 5 4 3 3 2 4 6 7 4 3 2 1 1 2 2 2 4 4 3 1 1 1 3 3 4 3 2 3 1 1 1 1 2 2 0 2 3 4 3 3 3 4
Wind_Direction
138 145 164 126 265 61 111 94 61 58 66 71 90 102 99 97 83 70 47 65 64 56 54 56 65 82 90 88 90 86 76 70 74 70 72 68 58 51 48 44 39 32 23
119 120 109 93 68 99 109 97 75 70 60 72 82 93 99 96 90 90 59 49 54 56 52 57 61 66 74 78 77 72 69 64 64 67 71 63 55 50 46 43 40 31 27
105 102 94 80 73 92 93 80 66 62 64 68 64 72 82 84 97 87 65 46 36 48 51 60 65 62 65 69 69 70 68 65 66 67 63 56 48 44 42 40 40 33 28
93 92 87 78 74 77 79 80 67 62 54 61 56 50 64 68 90 96 76 61 41 39 46 60 62 59 58 60 65 68 66 62 60 59 56 52 46 41 39 37 37 33 28
89 90 86 77 76 76 71 85 72 82 75 71 76 59 49 53 64 82 74 67 60 51 47 60 56 53 50 50 55 60 62 58 54 52 47 46 41 39 38 31 30 28 25
84 85 84 72 72 75 63 71 76 64 73 81 77 57 36 38 49 64 65 58 57 61 55 53 42 41 44 44 47 50 51 53 52 50 43 39 38 39 40 31 24 21 20
86 86 84 70 71 80 83 88 87 70 49 57 73 47 26 31 42 40 43 53 52 58 61 54 46 35 26 32 36 46 45 44 43 47 43 41 40 39 39 32 26 19 16
88 100 99 89 81 85 73 71 87 84 45 48 98 85 37 12 13 23 29 51 54 55 58 60 54 41 26 18 30 46 42 39 45 49 45 42 40 38 34 27 25 18 13
87 99 101 97 88 93 94 89 102 111 99 25 70 129 132 175 339 358 16 29 37 50 52 53 52 40 37 41 37 44 42 36 41 46 44 39 37 34 31 27 21 15 13
86 95 98 99 96 93 96 98 105 116 118 96 21 48 134 152 142 50 354 2 20 40 42 52 47 36 40 49 56 50 45 37 37 40 39 38 37 35 32 26 22 17 12
70 90 96 98 98 93 97 94 88 92 104 121 116 82 67 65 92 128 121 343 4 8 28 43 42 32 33 43 50 54 49 40 35 35 34 35 34 32 30 25 20 17 15
50 67 89 93 98 100 100 98 96 93 92 95 93 93 117 115 132 125 131 110 23 353 16 25 30 22 27 30 42 50 47 40 36 36 32 31 30 28 28 26 23 21 18
72 57 86 97 98 105 103 96 91 83 82 88 91 85 84 106 147 130 122 123 74 353 6 10 1 6 28 28 26 39 43 37 36 32 28 26 29 33 33 31 27 25 21
159 138 105 105 106 102 99 91 85 82 79 79 77 83 76 52 79 122 139 134 95 24 15 346 345 0 8 18 29 32 34 37 33 29 25 30 36 40 40 36 31 28 20
142 128 114 103 94 92 96 95 84 74 80 76 74 78 76 54 55 68 103 134 137 125 332 317 337 342 351 24 25 37 34 37 35 29 34 40 40 45 44 39 34 30 23
131 126 115 108 100 93 95 93 85 76 81 72 73 73 63 49 53 55 76 88 116 136 147 282 284 302 343 45 48 37 35 34 31 32 40 40 44 48 45 40 35 31 28
138 131 129 124 116 106 102 102 98 95 91 74 64 75 63 57 59 45 58 73 83 109 119 308 337 349 23 34 19 18 28 23 16 24 32 36 39 43 40 36 35 34 31
142 138 132 128 127 119 112 115 115 99 98 90 76 76 62 69 62 50 65 68 75 100 125 124 343 354 11 8 21 26 21 25 13 18 26 30 32 34 32 28 31 31 27
130 125 130 136 134 125 119 120 123 110 105 113 113 106 92 89 71 61 70 71 69 74 90 116 49 352 2 13 29 16 17 5 355 7 17 21 23 24 23 24 25 24 21
130 133 139 144 137 129 124 123 121 110 101 97 104 112 114 122 129 111 88 87 90 80 77 91 75 13 0 348 35 16 1 354 350 358 3 12 15 14 10 11 14 16 15
137 138 129 125 128 128 134 131 125 121 117 102 82 81 95 115 122 118 113 121 110 99 89 89 80 34 355 359 341 317 355 333 332 338 346 349 350 349 343 342 350 356 357
130 122 122 129 127 132 136 137 134 127 126 127 120 85 70 66 80 84 91 107 127 130 133 125 132 152 262 275 290 349 25 5 326 324 360 327 346 330 314 310 324 334 339
133 125 125 127 126 135 132 132 133 127 126 132 135 130 102 77 80 87 74 68 68 97 141 152 158 203 215 230 194 26 349 270 267 289 342 314 323 313 304 319 327 325 324
145 142 144 140 129 131 131 128 126 114 110 109 124 142 133 108 119 123 101 66 40 23 60 134 170 205 212 213 188 187 198 286 307 312 357 303 314 308 313 314 321 320 322
149 148 145 137 129 122 124 127 119 110 103 92 89 105 121 126 135 124 110 91 42 1 21 58 74 54 47 63 82 71 42 41 337 313 319 263 301 311 308 305 316 329 328
150 141 134 137 139 140 127 128 127 121 115 101 60 42 72 100 121 124 125 122 97 325 15 23 27 22 22 23 34 107 161 137 308 298 287 285 303 328 321 305 311 320 320